W5UE Weather Reports


Display with metric or nautical units.
time (UTC)temp
F
wind
direction
speed
MPH
gust
MPH
rain 1hr
in
rain 24hr
in
rain mn
in
humidity
%
barometer
mb
20171217061132 50 115 1.0 6.0 0.00 0.00 0.00 72 1018.9
20171217055639 50 107 1.0 8.0 0.00 0.00 0.00 71 1019.0
20171217054129 50 92 0.0 7.0 0.00 0.00 0.00 72 1019.1
20171217052628 49 81 0.0 0.0 0.00 0.00 0.00 73 1019.1
20171217051123 49 81 0.0 3.0 0.00 0.00 0.00 71 1019.4
20171217045726 49 80 0.0 0.0 0.00 0.00 0.00 71 1019.4
20171217044235 49 80 0.0 3.0 0.00 0.00 0.00 72 1019.7
20171217042630 50 75 0.0 0.0 0.00 0.00 0.00 73 1019.9
20171217041118 50 75 0.0 3.0 0.00 0.00 0.00 75 1020.1
20171217035656 49 70 0.0 0.0 0.00 0.00 0.00 79 1020.3
20171217034153 49 70 0.0 2.0 0.00 0.00 0.00 81 1020.6
20171217032616 48 64 0.0 0.0 0.00 0.00 0.00 80 1020.9
20171217031246 48 64 0.0 0.0 0.00 0.00 0.00 82 1021.0
20171217025634 47 64 0.0 0.0 0.00 0.00 0.00 83 1021.2
20171217024159 47 64 0.0 0.0 0.00 0.00 0.00 83 1020.9
20171217022610 47 64 0.0 0.0 0.00 0.00 0.00 84 1021.0
20171217021113 48 64 0.0 0.0 0.00 0.00 0.00 90 1021.1
20171217015619 47 64 0.0 0.0 0.00 0.00 0.00 90 1021.5
20171217014109 47 64 0.0 0.0 0.00 0.00 0.00 90 1021.5
20171217012631 47 64 0.0 0.0 0.00 0.00 0.00 89 1021.3
20171217011127 47 64 0.0 0.0 0.00 0.00 0.00 89 1021.3
20171217005609 47 64 0.0 0.0 0.00 0.00 0.00 88 1021.1
20171217004134 48 64 0.0 0.0 0.00 0.00 0.00 85 1021.0
20171217002608 49 64 0.0 0.0 0.00 0.00 0.00 77 1020.9
20171217001110 50 64 0.0 2.0 0.00 0.00 0.00 73 1020.7
20171216235636 51 60 0.0 0.0 0.00 0.00 0.00 75 1020.8
20171216234107 51 60 0.0 0.0 0.00 0.00 0.00 76 1020.9
20171216232620 52 60 0.0 0.0 0.00 0.00 0.00 71 1020.7
20171216231105 52 60 0.0 0.0 0.00 0.00 0.00 70 1020.8
20171216225630 54 60 0.0 0.0 0.00 0.00 0.00 67 1020.8
20171216224116 54 60 0.0 0.0 0.00 0.00 0.00 62 1020.8
20171216222612 55 60 0.0 0.0 0.00 0.00 0.00 57 1020.8
20171216221103 55 60 0.0 0.0 0.00 0.00 0.00 55 1020.9
20171216215634 56 60 0.0 2.0 0.00 0.00 0.00 52 1020.8
20171216214122 56 60 0.0 0.0 0.00 0.00 0.00 52 1020.8
20171216212616 56 60 0.0 0.0 0.00 0.00 0.00 49 1021.0
20171216211121 56 60 0.0 0.0 0.00 0.00 0.00 47 1020.8
20171216205623 56 60 0.0 1.0 0.00 0.00 0.00 47 1020.9
20171216204102 56 60 2.0 4.0 0.00 0.00 0.00 47 1020.8
20171216202559 56 71 1.0 4.0 0.00 0.00 0.00 47 1021.0
20171216201107 56 103 0.0 6.0 0.00 0.00 0.00 46 1020.8
20171216195558 55 40 0.0 3.0 0.00 0.00 0.00 49 1021.0
20171216194122 54 46 0.0 3.0 0.00 0.00 0.00 48 1021.1
20171216192554 53 36 2.0 4.0 0.00 0.00 0.00 50 1021.3
20171216191104 53 36 0.0 4.0 0.00 0.00 0.00 51 1021.5
20171216185545 52 360 3.0 6.0 0.00 0.00 0.00 51 1021.6
20171216184046 51 20 2.0 4.0 0.00 0.00 0.00 55 1021.8
20171216182539 51 96 0.0 3.0 0.00 0.00 0.00 54 1022.3
20171216181056 49 103 2.0 6.0 0.00 0.00 0.00 56 1022.3
20171216175547 49 99 0.0 6.0 0.00 0.00 0.00 57 1022.5
20171216174032 47 10 2.0 5.0 0.00 0.00 0.00 60 1023.0
20171216172608 46 12 2.0 6.0 0.00 0.00 0.00 61 1023.3
20171216171033 45 13 1.0 5.0 0.00 0.00 0.00 67 1023.8
20171216165525 44 22 3.0 5.0 0.00 0.00 0.00 68 1024.0
20171216164029 43 28 0.0 6.0 0.00 0.00 0.00 71 1024.3
20171216162523 42 38 1.0 6.0 0.00 0.00 0.00 72 1024.3
20171216161018 42 30 2.0 6.0 0.00 0.00 0.00 73 1024.6
20171216155523 41 27 2.0 5.0 0.00 0.00 0.00 74 1024.6
20171216154013 41 13 0.0 4.0 0.00 0.00 0.00 77 1024.7
20171216152524 40 19 1.0 5.0 0.00 0.00 0.00 77 1024.6
20171216151052 40 60 2.0 6.0 0.00 0.00 0.00 76 1024.4
20171216145509 39 43 0.0 3.0 0.00 0.00 0.00 79 1024.3
20171216144016 39 51 1.0 2.0 0.00 0.00 0.00 80 1024.3
20171216142525 38 59 0.0 0.0 0.00 0.00 0.00 82 1024.6
20171216141010 38 60 0.0 0.0 0.00 0.00 0.00 83 1024.4
20171216135502 38 26 0.0 3.0 0.00 0.00 0.00 84 1024.0
20171216134017 38 28 0.0 0.0 0.00 0.00 0.00 85 1024.1
20171216132524 38 26 0.0 0.0 0.00 0.00 0.00 85 1024.4
20171216131000 37 26 0.0 0.0 0.00 0.00 0.00 85 1024.1
20171216125518 37 26 0.0 0.0 0.00 0.00 0.00 85 1023.9
20171216124005 37 22 0.0 0.0 0.00 0.00 0.00 87 1023.5
20171216122515 37 22 0.0 0.0 0.00 0.00 0.00 87 1023.4
20171216120953 37 22 0.0 0.0 0.00 0.00 0.00 88 1023.0
20171216115505 37 17 0.0 0.0 0.00 0.00 0.00 88 1022.9
20171216113957 37 15 0.0 0.0 0.00 0.00 0.00 88 1023.1
20171216112454 37 12 0.0 0.0 0.00 0.00 0.00 88 1023.0
20171216110956 37 12 0.0 0.0 0.00 0.00 0.00 87 1022.9
20171216105517 37 12 0.0 0.0 0.00 0.00 0.00 87 1022.9
20171216103946 37 11 0.0 0.0 0.00 0.00 0.00 88 1022.5
20171216102503 37 5 0.0 0.0 0.00 0.00 0.00 89 1022.7
20171216100958 37 5 0.0 0.0 0.00 0.00 0.00 90 1022.3
20171216095444 37 5 0.0 0.0 0.00 0.00 0.00 90 1022.4
20171216094007 37 5 0.0 0.0 0.00 0.00 0.00 91 1022.6
20171216092442 36 5 0.0 0.0 0.00 0.00 0.00 92 1022.6
20171216090948 36 5 0.0 0.0 0.00 0.00 0.00 94 1022.5
20171216085455 36 5 0.0 0.0 0.00 0.00 0.00 97 1022.8
20171216084040 36 5 0.0 0.0 0.00 0.00 0.00 100 1022.9
20171216082438 35 5 0.0 0.0 0.00 0.00 0.00 100 1022.9
20171216080934 34 5 0.0 0.0 0.00 0.00 0.00 100 1022.8
20171216075433 34 5 0.0 0.0 0.00 0.00 0.00 100 1022.8
20171216073936 33 5 0.0 0.0 0.00 0.00 0.00 100 1022.5
20171216072507 32 5 0.0 0.0 0.00 0.00 0.00 100 1022.8
20171216070935 32 5 0.0 0.0 0.00 0.00 0.00 100 1022.5
20171216065446 32 5 0.0 0.0 0.00 0.00 0.00 100 1022.5
20171216063937 33 5 0.0 0.0 0.00 0.00 0.00 99 1022.6
20171216062543 33 5 0.0 0.0 0.00 0.00 0.00 99 1022.6